Volver al catálogo

STARLINK-1802

ActivoComunicacionesVLEO
NORAD 46702·PAYLOAD·🇺🇸 United States

Lanzado Oct 18, 2020 desde Cape Canaveral Space Force Station

Loading…

Próximos Pases (próximas 24 horas)

TLE

ActualizadoSource: CelesTrak SupGP

Época: Sep 14, 2026, 21:40 UTC

1 46702C 20073AJ  26257.90326389  .00095615  00000+0  17947-2 0  2575
2 46702  53.1530  46.8725 0000922 283.8989 256.7654 15.47975652    17

Sigue STARLINK-1802 en tiempo real con AllMySat

Download on the App Store